Storm Lake, IA

5:38 AM CDT on May 28, 2018 (GMT -0500)
Storm Lake Municipal

Weather History for KSLB - December, 2013

Change the Weather History Date:

Thursday, December 12, 2013

  Actual Average Record
Temperature  
Mean Temperature 15 °F -  
Max Temperature 24 °F 34 °F 53 °F (1998)
Min Temperature 6 °F 18 °F -14 °F (2000)
Degree Days  
Heating Degree Days 50    
Moisture  
Dew Point 10 °F    
Average Humidity 78    
Maximum Humidity 93    
Minimum Humidity 67    
Precipitation  
Precipitation 0.00 in - - ()
Sea Level Pressure  
Sea Level Pressure 30.19 in    
Wind  
Wind Speed 14 mph (SW)    
Max Wind Speed 21 mph    
Max Gust Speed 28 mph    
Visibility 10 miles    
Events      
Averages and records for this station are not official NWS values.
T = Trace of Precipitation, MM = Missing Value Source: NWS Daily Summary

Daily Weather History Graph

Daily Weather History Graph

Search for Another Location

Airport or City:

Astronomy

Dec. 12, 2013 Rise Set
Actual Time 7:41 AM CST 4:47 PM CST
Civil Twilight 7:09 AM CST 5:19 PM CST
Nautical Twilight 6:34 AM CST 5:55 PM CST
Astronomical Twilight 6:00 AM CST 6:29 PM CST
Moon 1:59 PM CST (12/12) 3:00 AM CST (12/12)
Length of Visible Light 10h 09m
Length of Day
9h 05m
Waxing Gibbous, 80% of the Moon is Illuminated
Dec 12
Waxing Gibbous
Dec 17
Full
Dec 25
Last Quarter
Jan 1
New
Jan 7
First Quarter

Hourly Weather History & Observations

Time (CST) Temp. Windchill Dew Point Humidity Pressure Visibility Wind Dir Wind Speed Gust Speed Precip Events Conditions
12:15 AM 6.8 °F -11.3 °F -0.4 °F 72% 30.33 in 10.0 mi SW 16.1 mph - N/A   Clear
12:35 AM 8.6 °F -9.5 °F -0.4 °F 67% 30.32 in 10.0 mi SW 17.3 mph 23.0 mph N/A   Clear
12:55 AM 6.8 °F -11.3 °F -0.4 °F 72% 30.31 in 10.0 mi SW 16.1 mph 24.2 mph N/A   Clear
1:15 AM 8.6 °F -10.0 °F -0.4 °F 67% 30.30 in 10.0 mi SW 18.4 mph - N/A   Clear
1:35 AM 8.6 °F -10.0 °F 1.4 °F 73% 30.29 in 10.0 mi WSW 18.4 mph 24.2 mph N/A   Clear
1:55 AM 8.6 °F -11.0 °F 1.4 °F 73% 30.28 in 10.0 mi WSW 20.7 mph - N/A   Clear
2:15 AM 10.4 °F -7.7 °F 1.4 °F 67% 30.27 in 10.0 mi WSW 18.4 mph 27.6 mph N/A   Clear
2:35 AM 10.4 °F -8.2 °F 3.2 °F 73% 30.26 in 10.0 mi WSW 19.6 mph 26.5 mph N/A   Clear
2:55 AM 10.4 °F -7.7 °F 3.2 °F 73% 30.26 in 10.0 mi SW 18.4 mph - N/A   Clear
3:15 AM 10.4 °F -7.7 °F 3.2 °F 73% 30.25 in 10.0 mi SW 18.4 mph 25.3 mph N/A   Clear
3:35 AM 10.4 °F -7.7 °F 3.2 °F 73% 30.25 in 10.0 mi WSW 18.4 mph - N/A   Clear
3:55 AM 10.4 °F -6.6 °F 3.2 °F 73% 30.25 in 10.0 mi WSW 16.1 mph 21.9 mph N/A   Clear
4:15 AM 10.4 °F -7.2 °F 3.2 °F 73% 30.25 in 10.0 mi WSW 17.3 mph - N/A   Clear
4:35 AM 10.4 °F -6.6 °F 3.2 °F 73% 30.24 in 10.0 mi WSW 16.1 mph - N/A   Clear
4:55 AM 10.4 °F -7.7 °F 3.2 °F 73% 30.23 in 10.0 mi WSW 18.4 mph - N/A   Clear
5:15 AM 10.4 °F -8.2 °F 3.2 °F 73% 30.23 in 10.0 mi WSW 19.6 mph - N/A   Clear
5:35 AM 10.4 °F -7.2 °F 3.2 °F 73% 30.23 in 10.0 mi WSW 17.3 mph 23.0 mph N/A   Clear
5:55 AM 10.4 °F -6.6 °F 3.2 °F 73% 30.23 in 10.0 mi WSW 16.1 mph - N/A   Clear
6:15 AM 8.6 °F -8.9 °F 3.2 °F 79% 30.23 in 10.0 mi WSW 16.1 mph - N/A   Clear
6:35 AM 8.6 °F -8.3 °F 3.2 °F 79% 30.24 in 10.0 mi WSW 15.0 mph - N/A   Clear
6:55 AM 10.4 °F -5.4 °F 5.0 °F 79% 30.25 in 10.0 mi WSW 13.8 mph - N/A   Clear
7:15 AM 10.4 °F -6.0 °F 5.0 °F 79% 30.25 in 10.0 mi WSW 15.0 mph - N/A   Clear
7:35 AM 12.2 °F -0.2 °F 6.8 °F 79% 30.24 in 10.0 mi WSW 9.2 mph - N/A   Clear
7:55 AM 12.2 °F -2.5 °F 6.8 °F 79% 30.24 in 10.0 mi WSW 12.7 mph - N/A   Partly Cloudy
8:15 AM 12.2 °F -1.0 °F 6.8 °F 79% 30.24 in 10.0 mi SW 10.4 mph - N/A   Scattered Clouds
8:35 AM 12.2 °F -1.8 °F 6.8 °F 79% 30.25 in 10.0 mi WSW 11.5 mph - N/A   Clear
8:55 AM 12.2 °F -1.0 °F 6.8 °F 79% 30.25 in 10.0 mi WSW 10.4 mph - N/A   Clear
9:15 AM 14.0 °F 2.9 °F 8.6 °F 79% 30.26 in 10.0 mi West 8.1 mph - N/A   Clear
9:35 AM 14.0 °F 1.2 °F 8.6 °F 79% 30.26 in 10.0 mi SW 10.4 mph - N/A   Partly Cloudy
9:55 AM 14.0 °F 2.0 °F 8.6 °F 79% 30.26 in 10.0 mi WSW 9.2 mph - N/A   Scattered Clouds
10:15 AM 15.8 °F 7.2 °F 10.4 °F 79% 30.27 in 10.0 mi WSW 5.8 mph - N/A   Overcast
10:35 AM 15.8 °F 5.1 °F 10.4 °F 79% 30.26 in 10.0 mi WSW 8.1 mph - N/A   Overcast
10:55 AM 17.6 °F 5.7 °F 12.2 °F 79% 30.26 in 10.0 mi WSW 10.4 mph - N/A   Overcast
11:15 AM 19.4 °F 12.8 °F 12.2 °F 74% 30.25 in 10.0 mi West 4.6 mph - N/A   Overcast
11:35 AM 19.4 °F 12.8 °F 12.2 °F 74% 30.24 in 10.0 mi WSW 4.6 mph - N/A   Overcast
11:55 AM 21.2 °F 13.6 °F 14.0 °F 74% 30.23 in 10.0 mi WSW 5.8 mph - N/A   Overcast
12:15 PM 21.2 °F 12.6 °F 14.0 °F 74% 30.23 in 10.0 mi WSW 6.9 mph - N/A   Scattered Clouds
12:35 PM 21.2 °F 14.9 °F 14.0 °F 74% 30.22 in 10.0 mi WSW 4.6 mph - N/A   Clear
12:55 PM 21.2 °F 16.4 °F 14.0 °F 74% 30.21 in 10.0 mi WSW 3.5 mph - N/A   Clear
1:15 PM 23.0 °F 17.0 °F 15.8 °F 74% 30.20 in 10.0 mi SW 4.6 mph - N/A   Clear
1:35 PM 23.0 °F 13.1 °F 15.8 °F 74% 30.21 in 10.0 mi SW 9.2 mph - N/A   Clear
1:55 PM 23.0 °F 11.1 °F 15.8 °F 74% 30.20 in 10.0 mi SW 12.7 mph - N/A   Clear
2:15 PM 24.8 °F 14.6 °F 15.8 °F 69% 30.19 in 10.0 mi SW 10.4 mph - N/A   Clear
2:35 PM 24.8 °F 16.1 °F 15.8 °F 69% 30.18 in 10.0 mi SW 8.1 mph - N/A   Clear
2:55 PM 24.8 °F 17.9 °F 17.6 °F 74% 30.18 in 10.0 mi SSW 5.8 mph - N/A   Partly Cloudy
3:15 PM 23.0 °F 14.7 °F 17.6 °F 80% 30.16 in 10.0 mi South 6.9 mph - N/A   Clear
3:35 PM 23.0 °F 13.1 °F 17.6 °F 80% 30.15 in 10.0 mi South 9.2 mph - N/A   Clear
3:55 PM 23.0 °F 13.9 °F 17.6 °F 80% 30.15 in 10.0 mi South 8.1 mph - N/A   Clear
4:15 PM 21.2 °F 10.9 °F 17.6 °F 86% 30.16 in 10.0 mi South 9.2 mph - N/A   Clear
4:35 PM 21.2 °F 9.5 °F 15.8 °F 80% 30.15 in 10.0 mi South 11.5 mph - N/A   Clear
4:55 PM 21.2 °F 9.5 °F 15.8 °F 80% 30.14 in 10.0 mi South 11.5 mph - N/A   Clear
5:15 PM 21.2 °F 10.1 °F 15.8 °F 80% 30.14 in 10.0 mi South 10.4 mph - N/A   Clear
5:35 PM 21.2 °F 10.9 °F 17.6 °F 86% 30.13 in 10.0 mi South 9.2 mph - N/A   Clear
5:55 PM 21.2 °F 10.1 °F 15.8 °F 80% 30.13 in 10.0 mi South 10.4 mph - N/A   Clear
6:15 PM 21.2 °F 8.9 °F 15.8 °F 80% 30.12 in 10.0 mi South 12.7 mph - N/A   Clear
6:35 PM 19.4 °F 7.9 °F 15.8 °F 86% 30.12 in 10.0 mi South 10.4 mph - N/A   Clear
6:55 PM 19.4 °F 7.9 °F 15.8 °F 86% 30.12 in 10.0 mi South 10.4 mph - N/A   Clear
7:15 PM 17.6 °F 4.3 °F 14.0 °F 86% 30.11 in 10.0 mi South 12.7 mph - N/A   Clear
7:35 PM 17.6 °F 4.3 °F 14.0 °F 86% 30.10 in 10.0 mi South 12.7 mph - N/A   Clear
7:55 PM 17.6 °F 4.3 °F 14.0 °F 86% 30.09 in 10.0 mi South 12.7 mph - N/A   Clear
8:15 PM 17.6 °F 5.0 °F 14.0 °F 86% 30.08 in 10.0 mi South 11.5 mph - N/A   Clear
8:35 PM 15.8 °F 2.7 °F 14.0 °F 93% 30.08 in 10.0 mi SSW 11.5 mph - N/A   Clear
8:55 PM 17.6 °F 5.0 °F 14.0 °F 86% 30.07 in 10.0 mi SSW 11.5 mph - N/A   Clear
9:15 PM 19.4 °F 6.0 °F 15.8 °F 86% 30.07 in 10.0 mi SW 13.8 mph - N/A   Clear
9:35 PM 21.2 °F 8.3 °F 15.8 °F 80% 30.06 in 10.0 mi SW 13.8 mph - N/A   Clear
9:55 PM 19.4 °F 7.9 °F 15.8 °F 86% 30.05 in 10.0 mi SSW 10.4 mph - N/A   Clear
10:15 PM 19.4 °F 7.2 °F 15.8 °F 86% 30.05 in 10.0 mi SW 11.5 mph - N/A   Clear
10:35 PM 19.4 °F 7.2 °F 15.8 °F 86% 30.04 in 10.0 mi SW 11.5 mph - N/A   Clear
10:55 PM 19.4 °F 7.2 °F 15.8 °F 86% 30.04 in 10.0 mi SW 11.5 mph - N/A   Clear
11:15 PM 19.4 °F 6.6 °F 15.8 °F 86% 30.03 in 10.0 mi SSW 12.7 mph - N/A   Clear
11:35 PM 19.4 °F 6.6 °F 15.8 °F 86% 30.03 in 10.0 mi SW 12.7 mph - N/A   Clear
11:55 PM 19.4 °F 7.9 °F 15.8 °F 86% 30.02 in 10.0 mi SSW 10.4 mph - N/A   Clear